Time,TemperatureF,DewpointF,PressureIn,WindDirection,WindDirectionDegrees,WindSpeedMPH,WindSpeedGustMPH,Humidity,HourlyPrecipIn,Conditions,Clouds,dailyrainin,SolarRadiationWatts/m^2,SoftwareType,DateUTC
2013-08-19 00:02:00,75.0,55.0,30.10,NW,306,5.0,6.0,50,-99.99,,,-99.99,0.000000,,2013-08-19 06:02:00,
2013-08-19 00:42:00,81.0,52.0,30.11,ESE,110,8.0,13.0,36,-99.99,,,-99.99,0.000000,,2013-08-19 06:42:00,
2013-08-19 00:52:00,81.0,52.0,30.11,ESE,110,8.0,13.0,36,-99.99,,,-99.99,0.000000,,2013-08-19 06:52:00,
2013-08-19 01:01:00,81.0,52.0,30.11,ESE,110,8.0,13.0,36,-99.99,,,-99.99,0.000000,,2013-08-19 07:01:00,
2013-08-19 01:21:00,76.0,53.0,30.11,WNW,287,8.0,12.0,44,-99.99,,,-99.99,0.000000,,2013-08-19 07:21:00,
2013-08-19 01:42:00,78.0,51.0,30.11,WNW,293,11.0,14.0,39,-99.99,,,-99.99,0.000000,,2013-08-19 07:42:00,
2013-08-19 01:52:00,78.0,51.0,30.11,WNW,293,11.0,14.0,39,-99.99,,,-99.99,0.000000,,2013-08-19 07:52:00,
2013-08-19 02:02:00,78.0,51.0,30.11,WNW,293,11.0,14.0,39,-99.99,,,-99.99,0.000000,,2013-08-19 08:02:00,
2013-08-19 02:42:00,72.0,54.0,30.11,WNW,295,2.0,5.0,53,-99.99,,,-99.99,0.000000,,2013-08-19 08:42:00,
2013-08-19 02:52:00,72.0,54.0,30.11,WNW,295,2.0,5.0,53,-99.99,,,-99.99,0.000000,,2013-08-19 08:52:00,
2013-08-19 03:11:00,70.0,55.0,30.10,NW,305,6.0,8.0,58,-99.99,,,-99.99,0.000000,,2013-08-19 09:11:00,
2013-08-19 03:43:00,71.0,54.0,30.10,East,85,2.0,6.0,55,-99.99,,,-99.99,0.000000,,2013-08-19 09:43:00,
2013-08-19 04:43:00,69.0,56.0,30.10,NNW,340,2.0,4.0,61,-99.99,,,-99.99,0.000000,,2013-08-19 10:43:00,
2013-08-19 04:52:00,67.0,57.0,30.10,NW,311,3.0,5.0,69,-99.99,,,-99.99,0.000000,,2013-08-19 10:52:00,
2013-08-19 05:02:00,67.0,57.0,30.10,NW,311,3.0,5.0,69,-99.99,,,-99.99,0.000000,,2013-08-19 11:02:00,
2013-08-19 05:12:00,67.0,57.0,30.10,NW,311,3.0,5.0,69,-99.99,,,-99.99,0.000000,,2013-08-19 11:12:00,
2013-08-19 05:45:00,67.0,54.0,30.09,WNW,293,3.0,5.0,62,-99.99,,,-99.99,0.000000,,2013-08-19 11:45:00,
2013-08-19 06:11:00,66.0,55.0,30.09,SE,142,3.0,6.0,68,-99.99,,,-99.99,0.000000,,2013-08-19 12:11:00,
2013-08-19 06:42:00,65.0,56.0,30.10,NW,304,3.0,9.0,72,-99.99,,,-99.99,0.000000,,2013-08-19 12:42:00,
2013-08-19 07:22:00,65.0,55.0,30.12,WNW,303,5.0,7.0,70,-99.99,,,-99.99,4.880000,,2013-08-19 13:22:00,
2013-08-19 07:42:00,67.0,56.0,30.13,WNW,284,4.0,8.0,67,-99.99,,,-99.99,57.880001,,2013-08-19 13:42:00,
2013-08-19 08:11:00,71.0,57.0,30.13,SE,145,0.0,2.0,63,-99.99,,,-99.99,99.720001,,2013-08-19 14:11:00,
2013-08-19 08:42:00,76.0,56.0,30.15,NW,309,3.0,4.0,49,-99.99,,,-99.99,228.729996,,2013-08-19 14:42:00,
2013-08-19 08:52:00,76.0,56.0,30.15,NW,309,3.0,4.0,49,-99.99,,,-99.99,228.729996,,2013-08-19 14:52:00,
2013-08-19 09:01:00,76.0,56.0,30.15,NW,309,3.0,4.0,49,-99.99,,,-99.99,228.729996,,2013-08-19 15:01:00,
2013-08-19 09:44:00,79.0,55.0,30.16,East,84,3.0,6.0,43,-99.99,,,-99.99,362.609985,,2013-08-19 15:44:00,
2013-08-19 10:47:00,84.0,55.0,30.15,East,80,5.0,8.0,36,-99.99,,,-99.99,557.869995,,2013-08-19 16:47:00,
2013-08-19 11:04:00,84.0,55.0,30.15,East,80,5.0,8.0,36,-99.99,,,-99.99,557.869995,,2013-08-19 17:04:00,
2013-08-19 11:57:00,88.0,54.0,30.14,ESE,117,4.0,9.0,31,-99.99,,,-99.99,732.200012,,2013-08-19 17:57:00,
2013-08-19 12:05:00,88.0,54.0,30.14,ESE,117,4.0,9.0,31,-99.99,,,-99.99,732.200012,,2013-08-19 18:05:00,
2013-08-19 12:28:00,88.0,54.0,30.14,ENE,66,4.0,9.0,31,-99.99,,,-99.99,755.210022,,2013-08-19 18:28:00,
2013-08-19 12:50:00,-999.0,-99.9,30.13,SE,129,7.0,12.0,29,-99.99,,,-99.99,,,2013-08-19 18:50:00,
2013-08-19 13:00:00,-999.0,-99.9,30.12,ESE,115,5.0,11.0,29,-99.99,,,-99.99,,,2013-08-19 19:00:00,
2013-08-19 13:16:00,90.0,54.0,30.12,ESE,115,5.0,11.0,29,-99.99,,,-99.99,800.539978,,2013-08-19 19:16:00,
2013-08-19 13:30:00,-999.0,-99.9,30.11,ESE,116,6.0,12.0,28,-99.99,,,-99.99,813.090027,,2013-08-19 19:30:00,
2013-08-19 13:50:00,92.0,54.0,30.11,ESE,116,6.0,12.0,28,-99.99,,,-99.99,813.090027,,2013-08-19 19:50:00,
2013-08-19 14:50:00,94.0,53.0,30.08,ESE,106,5.0,13.0,24,-99.99,,,-99.99,851.440002,,2013-08-19 20:50:00,
2013-08-19 15:00:00,-999.0,-99.9,30.07,ESE,108,8.0,18.0,-999,-99.99,,,-99.99,,,2013-08-19 21:00:00,
2013-08-19 15:16:00,95.0,52.0,30.07,ESE,108,8.0,18.0,24,-99.99,,,-99.99,836.799988,,2013-08-19 21:16:00,
2013-08-19 15:55:00,93.0,51.0,30.05,ENE,71,8.0,16.0,24,-99.99,,,-99.99,168.750000,,2013-08-19 21:55:00,
2013-08-19 17:25:00,87.0,50.0,30.03,SW,229,5.0,12.0,27,-99.99,,,-99.99,110.180000,,2013-08-19 23:25:00,
2013-08-19 17:48:00,86.0,50.0,30.04,SE,144,17.0,28.0,29,-99.99,,,-99.99,186.190002,,2013-08-19 23:48:00,
2013-08-19 17:55:00,87.0,51.0,30.04,SE,144,13.0,21.0,29,-99.99,,,-99.99,204.320007,,2013-08-19 23:55:00,
2013-08-19 18:02:00,87.0,51.0,30.04,SE,144,13.0,21.0,29,-99.99,,,-99.99,204.320007,,2013-08-20 00:02:00,
2013-08-19 18:11:00,87.0,51.0,30.04,SE,144,13.0,21.0,29,-99.99,,,-99.99,204.320007,,2013-08-20 00:11:00,
2013-08-19 18:24:00,86.0,49.0,30.06,SE,144,10.0,16.0,27,-99.99,,,-99.99,125.519997,,2013-08-20 00:24:00,
2013-08-19 18:42:00,86.0,48.0,30.05,SE,146,10.0,16.0,26,-99.99,,,-99.99,153.410004,,2013-08-20 00:42:00,
2013-08-19 19:11:00,86.0,47.0,30.05,South,174,8.0,13.0,25,-99.99,,,-99.99,101.809998,,2013-08-20 01:11:00,
2013-08-19 19:42:00,85.0,50.0,30.05,WNW,288,6.0,15.0,29,-99.99,,,-99.99,15.340000,,2013-08-20 01:42:00,
2013-08-19 20:11:00,82.0,53.0,30.07,WNW,289,13.0,25.0,37,-99.99,,,-99.99,2.790000,,2013-08-20 02:11:00,
2013-08-19 20:42:00,82.0,52.0,30.06,WNW,299,15.0,21.0,35,-99.99,,,-99.99,0.000000,,2013-08-20 02:42:00,
2013-08-19 21:43:00,82.0,51.0,30.06,WNW,300,8.0,14.0,34,-99.99,,,-99.99,0.000000,,2013-08-20 03:43:00,
2013-08-19 22:13:00,82.0,50.0,30.07,WNW,285,7.0,11.0,32,-99.99,,,-99.99,0.000000,,2013-08-20 04:13:00,
2013-08-19 22:23:00,82.0,50.0,30.07,WNW,285,7.0,11.0,32,-99.99,,,-99.99,0.000000,,2013-08-20 04:23:00,
2013-08-19 22:43:00,82.0,50.0,30.08,North,10,4.0,12.0,33,-99.99,,,-99.99,0.000000,,2013-08-20 04:43:00,
2013-08-19 22:53:00,82.0,50.0,30.08,North,10,4.0,12.0,33,-99.99,,,-99.99,0.000000,,2013-08-20 04:53:00,
2013-08-19 23:12:00,78.0,54.0,30.09,South,191,4.0,8.0,42,-99.99,,,-99.99,0.000000,,2013-08-20 05:12:00,
2013-08-19 23:42:00,78.0,54.0,30.11,ESE,118,6.0,11.0,43,-99.99,,,-99.99,0.000000,,2013-08-20 05:42:00,
2013-08-19 23:52:00,78.0,55.0,30.11,SE,126,5.0,11.0,44,-99.99,,,-99.99,0.000000,,2013-08-20 05:52:00,